Matala Airport

Jump to: basic info | weather | runways | comments

Related pages: nearby airports | nearby navaids | notams | map

Basic information (top)

Codes: FN18
Location: lon -14.727500, lat 15.014000, elev 4,120 ft / 1,256 m msl
Status: small_airport

Weather (top)

Current conditions for Lubango Airport 84nm (156km) W (rec'd 2014/10/25 08:00Z):

FNUB 250800Z 21010KT 9999 FEW040 27/M01 Q1024

Airport forecast for Lubango Airport 84nm (156km) W (rec'd 2014/10/24 12:00Z):

TAF FNUB 241100Z 2412/2424 24010KT 9999 FEW025 
      TEMPO 2414/2418 32010G20KT CAVOK 
      BECMG 2418/2420 17005KT SCT025 BKN050 PROB30 
      TEMPO 2420/2424 VRB03KT 8000 DZ FEW010 BKN023

Runways (top)

10/28: 8,015 x 98 ft (2,443 x 30 m) — paved — not lighted

Latest comments (top)

No comments yet for Matala Airport

More... (top)

See also NOTAMs and nearby airports and navaids, or visit the Matala Airport page at the main OurAirports website..